Flag for U.S.A. Weather past 2 weeks in Laredo, Texas, U.S.A.

Now
66 °F

Mostly cloudy.


Feels Like: 66 °F
Forecast: 59 / 73 °F
Wind: 13 mph from East

Location: Laredo International Airport

Current Time: Jan 30, 2015 at 7:31:27 PM

Latest Report: Jan 30, 2015 at 6:56 PM


Visibility: 10 mi

Pressure: 30.18 "Hg

Humidity: 59%

Dew point: 51 °F

Location of LaredoLocation

Historic Weather in Laredo — Graph

°F

Laredo temperature yesterday

Maximum temperature yesterday: 80 °F (at 1:56 PM)
Minimum temperature yesterday: 55 °F (at 5:56 AM)
Average temperature yesterday: 68 °F

Past Weeks' High & Low Weather Summary

 TemperatureHumidityPressure
High86 °F (Jan 20, 3:56 PM)100% (Jan 19, 6:56 AM)30.43 "Hg (Jan 19, 6:56 AM)
Low36 °F (Jan 24, 6:56 AM)18% (Jan 27, 3:56 PM)29.87 "Hg (Jan 20, 4:56 PM)
Average61 °F60%30.18 "Hg
* Reported Jan 15 5:56 PM — Jan 30 5:56 PM, Laredo, Weather by CustomWeather, © 2014

Note: Actual official high and low records may vary slightly from our data, if they occured in-between our weather recording intervals... More about our weather records

Advertising

Laredo weather history for previous 24 hours

 ConditionsComfort  
Time TempWeatherWind HumidityBarometerVisibility
5:56 PM
Jan 30
68 °FOvercast.12 mph54%30.18 "Hg10 mi
4:56 PM69 °FOvercast.12 mph51%30.18 "Hg10 mi
3:56 PM70 °FOvercast.14 mph49%30.19 "Hg10 mi
2:56 PM73 °FPartly sunny.14 mph45%30.19 "Hg10 mi
1:56 PM71 °FScattered clouds.10 mph44%30.22 "Hg10 mi
12:56 PM71 °FSunny.10 mph43%30.27 "Hg10 mi
11:56 AM67 °FSunny.15 mph45%30.31 "Hg10 mi
10:56 AM64 °FSunny.15 mph45%30.33 "Hg10 mi
9:56 AM61 °FSunny.15 mph48%30.35 "Hg10 mi
8:56 AM58 °FScattered clouds.18 mph51%30.34 "Hg10 mi
7:56 AM57 °FOvercast.14 mph58%30.33 "Hg10 mi
6:56 AM58 °FPassing clouds.17 mph54%30.31 "Hg10 mi
5:56 AM60 °FOvercast.18 mph56%30.29 "Hg10 mi
4:56 AM61 °FOvercast.15 mph70%30.29 "Hg10 mi
3:56 AM61 °FMostly cloudy.13 mph90%30.29 "Hg10 mi
2:56 AM61 °FLow clouds.8 mph90%30.29 "Hg10 mi
1:56 AM62 °FPassing clouds.6 mph90%30.28 "Hg10 mi
12:56 AM63 °FPassing clouds.7 mph87%30.27 "Hg10 mi
11:56 PM
Jan 29
63 °FPassing clouds.8 mph87%30.27 "Hg10 mi
10:56 PM64 °FClear.8 mph84%30.27 "Hg10 mi
9:56 PM65 °FClear.8 mph78%30.26 "Hg10 mi
8:56 PM67 °FClear.8 mph66%30.23 "Hg10 mi
7:56 PM69 °FClear.7 mph61%30.22 "Hg10 mi
Weather by CustomWeather, © 2014

See weather overviewHow to use our weather pages